Hourly Data Report for September 24, 2017

All times are specified in Local Standard Time (LST). Add 1 hour to adjust for Daylight Saving Time where and when it is observed.

POND INLET A
NUNAVUT

72°41'22.000" N
77°58'08.000" W
61.60 m
2403206
71095
YIO

Download Data

Hourly Data (September 2017)
Hourly Data Report for September 24, 2017
Temp Definition
°C
Dew Point Temp Definition
°C
Rel Hum Definition
%
Wind Dir Definition
10's deg

Wind Spd Definition
km/h
Visibility Definition
km
Stn Press Definition
kPa
Hmdx Definition


Wind Chill Definition


Weather Definition


TIME
00:00 Legend Double Dagger -3.8 -6.4 82 14 21 16.1 100.54   -10 LegendNANA
01:00 Legend Double Dagger -3.4 -6.0 82 14 18 16.1 100.56   -9 LegendNANA
02:00 Legend Double Dagger -3.2 -5.9 82 16 17 16.1 100.56   -9 LegendNANA
03:00 Legend Double Dagger -3.2 -5.7 83 16 15 16.1 100.57   -8 LegendNANA
04:00 Legend Double Dagger -2.9 -5.4 83 18 11 16.1 100.57   -7 LegendNANA
05:00 Legend Double Dagger -3.0 -5.5 83 15 13 16.1 100.59   -8 LegendNANA
06:00 Legend Double Dagger -2.9 -5.4 83 19 13 16.1 100.60   -8 LegendNANA
07:00 Legend Double Dagger -3.0 -5.5 83 16 13 16.1 100.59   -8 LegendNANA
08:00 Legend Double Dagger -2.6 -4.9 84 17 11 16.1 100.57   -7 LegendNANA
09:00 Legend Double Dagger -2.1 -4.8 82 15 11 16.1 100.54   -6 LegendNANA
10:00 Legend Double Dagger -2.0 -4.8 81 16 11 16.1 100.51   -6 LegendNANA
11:00 Legend Double Dagger -2.0 -5.0 80 15 15 16.1 100.47   -7 LegendNANA
12:00 Legend Double Dagger -1.6 -4.6 80 17 15 16.1 100.45   -6 LegendNANA
13:00 Legend Double Dagger -1.0 -4.2 79 20 5 16.1 100.43   -3 LegendNANA
14:00 Legend Double Dagger -2.1 -4.8 82 21 11 16.1 100.41   -6 LegendNANA
15:00 Legend Double Dagger -2.0 -4.4 84 21 13 16.1 100.39   -6 LegendNANA
16:00 Legend Double Dagger -2.6 -4.8 85 22 13 16.1 100.35   -7 LegendNANA
17:00 Legend Double Dagger -2.9 -5.1 85 20 17 16.1 100.32   -8 LegendNANA
18:00 Legend Double Dagger -3.0 -5.2 85 19 11 16.1 100.26   -7 LegendNANA
19:00 Legend Double Dagger -3.1 -5.1 86 18 13 16.1 100.22   -8 LegendNANA
20:00 Legend Double Dagger -3.2 -5.1 87 15 15 16.1 100.15   -8 LegendNANA
21:00 Legend Double Dagger -3.4 -5.3 87 15 13 16.1 100.08   -8 LegendNANA
22:00 Legend Double Dagger -6.0 -7.8 87 15 18 16.1 100.04   -12 LegendNANA
23:00 Legend Double Dagger -6.1 -7.5 90 14 21 16.1 100.02   -13 LegendNANA

Notes on Data Quality.

Legend

  • E = Estimated
  • M = Missing
  • NA = Not Available
  • ‡ = Partner data that is not subject to review by the National Climate Archives
Date modified: